Total_Precipitation_Accumulation
0.08 0.24 0.61 0.94 1.71 1.87 1.26 0.68 0.54 0.45 0.43 0.48 0.51 0.49 0.54 0.70 1.00 1.77 1.65 1.24 1.07 1.28 1.67 2.28 2.44 2.29 2.23 2.21 2.09 2.14 2.09 2.06 2.25 2.35 2.34 2.17 2.11 2.34 2.41 2.39 2.39 2.49 2.40 2.12 1.99 1.74 1.54 1.55 1.57
0.19 0.42 0.79 1.25 1.85 1.52 1.08 0.53 0.40 0.37 0.33 0.44 0.49 0.42 0.40 0.46 0.43 0.67 1.07 1.19 1.05 1.13 1.35 1.69 2.03 2.01 1.96 1.94 1.96 1.97 1.91 1.93 2.07 2.12 2.24 2.24 2.14 2.35 2.53 2.42 2.38 2.52 2.33 2.11 1.89 1.70 1.49 1.40 1.42
0.36 0.60 0.99 1.51 1.18 0.79 0.68 0.39 0.33 0.38 0.46 0.63 0.74 0.51 0.45 0.66 0.57 0.70 0.85 0.87 0.93 1.05 1.16 1.47 1.77 1.77 1.76 1.80 1.96 1.98 1.87 1.86 1.95 2.06 2.19 2.32 2.39 2.41 2.52 2.40 2.41 2.54 2.51 2.24 1.93 1.73 1.52 1.43 1.38
0.45 0.74 1.04 1.08 0.51 0.32 0.35 0.26 0.32 0.41 0.69 0.82 0.85 0.72 0.65 0.68 0.60 0.64 0.66 0.73 0.89 1.05 1.19 1.44 1.66 1.61 1.68 1.72 1.92 1.96 1.97 1.92 1.95 2.09 2.09 2.23 2.48 2.62 2.67 2.51 2.49 2.51 2.42 2.14 1.91 1.68 1.49 1.38 1.34
0.46 0.85 1.19 0.74 0.24 0.18 0.18 0.15 0.22 0.36 0.61 0.82 0.84 0.95 1.03 0.96 0.73 0.64 0.64 0.79 0.91 1.04 1.26 1.35 1.59 1.65 1.79 1.96 2.10 2.06 2.00 1.87 1.89 1.92 1.86 2.02 2.45 2.72 2.79 2.72 2.64 2.54 2.39 2.08 1.85 1.66 1.47 1.37 1.38
0.61 0.97 0.86 0.47 0.23 0.15 0.14 0.15 0.24 0.45 0.64 0.80 0.97 1.12 1.17 1.07 0.83 0.74 0.74 0.90 0.99 1.02 1.26 1.36 1.60 1.71 1.81 1.98 2.29 2.33 2.05 1.91 1.86 1.92 1.85 1.93 2.22 2.58 2.73 2.83 2.85 2.71 2.47 2.07 1.84 1.61 1.43 1.38 1.43
0.49 0.63 0.48 0.31 0.22 0.15 0.14 0.19 0.30 0.45 0.55 0.83 1.11 1.23 1.19 1.21 1.00 0.85 0.97 1.04 1.33 1.12 1.19 1.37 1.58 1.74 1.84 1.93 2.14 2.16 2.11 2.02 2.00 2.07 1.94 2.01 2.26 2.47 2.65 2.92 2.85 2.69 2.49 2.14 1.87 1.63 1.42 1.39 1.42
0.29 0.38 0.30 0.22 0.14 0.10 0.12 0.19 0.29 0.41 0.68 0.94 1.00 1.18 1.35 1.17 1.11 1.11 1.24 1.27 1.46 1.39 1.23 1.29 1.46 1.75 1.83 1.84 2.02 2.18 2.13 2.04 2.08 2.14 2.14 2.41 2.59 2.61 2.65 2.90 2.95 2.74 2.52 2.18 2.04 1.79 1.55 1.51 1.46
0.29 0.38 0.28 0.17 0.08 0.09 0.14 0.23 0.30 0.37 0.57 0.75 0.88 0.93 0.83 0.91 1.11 1.21 1.39 1.55 1.62 1.62 1.55 1.56 1.52 1.56 1.69 1.71 1.93 2.41 2.39 2.28 2.29 2.41 2.65 2.96 3.22 3.18 3.23 3.17 3.25 3.11 2.79 2.60 2.43 2.21 1.89 1.73 1.55
0.24 0.27 0.15 0.08 0.05 0.07 0.12 0.20 0.34 0.44 0.73 1.10 1.18 1.28 1.03 1.11 1.25 1.31 1.37 1.45 1.63 1.76 1.78 1.95 1.78 1.63 1.69 1.69 2.32 3.04 2.86 2.72 2.80 2.93 3.08 3.45 3.62 3.90 3.44 3.73 3.90 3.89 3.67 3.43 3.23 3.08 2.55 1.95 1.61
0.08 0.08 0.05 0.04 0.03 0.03 0.06 0.12 0.17 0.37 0.80 1.27 1.37 1.42 1.30 1.31 1.37 1.46 1.55 1.69 1.87 2.08 1.93 1.86 2.00 2.06 2.07 2.16 2.41 2.75 3.07 3.16 3.21 3.19 3.21 3.48 3.43 3.60 3.62 4.06 4.75 4.71 4.04 3.57 3.65 3.54 2.82 2.45 2.52
0.05 0.03 0.03 0.03 0.03 0.04 0.06 0.13 0.23 0.38 0.82 1.11 1.06 0.98 1.09 1.32 1.48 1.64 2.03 2.26 2.47 2.61 2.60 2.63 2.60 2.61 2.63 2.48 2.37 2.45 2.64 2.74 2.77 2.88 2.93 3.12 3.47 3.64 3.80 4.12 4.16 4.18 3.90 4.03 3.82 3.69 3.26 2.98 2.76
0.04 0.03 0.04 0.04 0.03 0.04 0.09 0.18 0.31 0.44 0.71 0.70 0.63 0.72 1.16 1.43 1.66 1.99 2.25 2.48 2.73 3.09 3.37 3.94 3.90 3.40 3.12 2.86 2.61 2.32 2.51 2.38 2.19 2.35 2.67 2.80 3.02 3.36 3.55 3.41 3.43 3.16 3.27 3.58 3.62 3.19 3.30 3.20 3.14
0.03 0.04 0.05 0.07 0.05 0.07 0.11 0.17 0.42 0.52 0.61 0.69 0.68 0.98 1.45 1.95 2.16 2.43 2.75 3.19 3.49 3.92 3.98 4.21 4.79 4.19 3.57 3.05 2.77 2.55 2.40 2.48 2.30 2.40 2.36 2.62 2.80 2.92 2.99 2.91 3.03 2.87 2.90 3.02 3.00 2.91 3.24 3.30 3.18
0.05 0.08 0.15 0.14 0.11 0.12 0.17 0.36 0.55 0.66 0.66 0.89 0.97 1.19 1.75 2.42 2.46 2.76 3.09 3.59 4.01 4.46 4.63 4.75 5.07 4.80 4.37 3.80 3.22 2.74 2.55 2.40 2.42 2.53 2.33 2.40 2.55 2.61 2.66 2.71 2.70 2.71 2.56 2.55 2.51 2.56 2.84 2.88 2.80
0.07 0.16 0.31 0.25 0.15 0.16 0.25 0.74 0.86 0.73 0.70 0.99 1.22 1.44 1.92 2.59 2.69 3.01 3.52 4.02 4.67 5.11 5.39 5.43 5.18 5.25 4.96 4.38 3.81 3.37 3.11 2.86 2.64 2.46 2.32 2.15 2.22 2.26 2.39 2.31 2.27 2.27 2.18 2.18 2.36 2.41 2.61 2.82 2.88
0.12 0.18 0.30 0.29 0.21 0.19 0.28 0.77 0.79 0.54 0.69 0.97 1.30 1.61 1.92 2.27 2.77 3.36 3.88 4.44 5.32 6.27 6.74 6.53 5.88 5.53 5.13 4.67 4.24 4.07 3.85 3.48 3.07 2.81 2.59 2.42 2.20 2.10 2.17 2.23 2.29 1.99 2.02 2.11 1.99 2.30 2.48 2.77 2.86
0.10 0.14 0.24 0.33 0.25 0.29 0.40 0.51 0.63 0.66 0.84 1.05 1.26 1.44 1.78 2.05 2.45 3.16 3.75 4.44 5.39 6.58 7.33 7.24 6.58 5.79 5.16 4.88 4.57 4.45 4.13 3.70 3.25 3.03 2.87 2.56 2.39 2.14 2.16 2.03 1.95 1.74 1.93 2.24 2.36 2.75 2.70 2.62 2.61
0.07 0.12 0.20 0.28 0.24 0.34 0.44 0.53 0.67 0.83 1.06 1.10 1.17 1.27 1.52 1.82 2.23 2.95 3.59 4.15 4.84 5.61 6.19 6.09 5.49 5.03 4.56 4.14 3.67 3.64 3.50 3.26 3.05 2.82 2.60 2.54 2.41 2.22 2.27 2.07 2.15 1.87 1.91 2.03 2.08 2.36 2.49 2.41 2.41
0.07 0.11 0.18 0.23 0.20 0.21 0.37 0.65 0.79 0.85 1.03 0.99 0.99 1.04 1.24 1.61 2.22 2.98 3.57 3.79 3.84 4.12 4.36 3.86 3.67 3.70 3.42 3.26 3.26 3.20 3.08 2.80 2.61 2.53 2.65 2.33 2.27 2.19 2.04 2.22 2.01 1.92 2.10 2.11 2.17 2.39 2.50 2.41 2.46
0.09 0.12 0.14 0.22 0.22 0.28 0.44 0.85 1.05 0.95 0.97 0.83 0.81 1.03 1.49 1.92 2.34 2.85 3.02 3.03 2.94 2.91 2.90 2.67 2.63 2.96 3.00 3.08 3.14 3.15 3.13 2.97 2.75 2.51 2.55 2.23 2.02 2.01 2.09 2.06 2.09 2.16 1.87 2.10 2.25 2.25 2.43 2.51 2.44
0.08 0.08 0.06 0.09 0.18 0.42 0.59 1.06 1.30 1.19 1.13 0.86 0.89 1.28 1.78 2.09 2.34 2.31 1.90 1.76 1.91 2.01 2.14 2.40 2.50 2.65 2.61 2.78 2.75 2.67 2.45 2.32 2.22 2.17 2.28 2.33 2.11 1.97 1.90 1.97 2.23 2.32 2.03 2.24 1.84 1.95 2.25 2.45 2.38
0.06 0.05 0.04 0.08 0.18 0.46 0.75 1.21 1.47 1.35 1.13 0.88 0.85 0.91 1.29 1.44 1.39 1.25 1.11 1.15 1.39 1.66 1.94 2.30 2.42 2.46 2.39 2.38 2.52 2.71 2.61 2.60 2.46 2.34 2.55 2.55 2.53 2.27 1.94 1.95 2.19 2.37 2.30 2.34 2.15 2.34 2.14 2.05 2.06
0.05 0.07 0.13 0.22 0.41 0.89 0.98 1.10 1.41 1.28 1.06 0.92 0.79 0.70 0.90 0.94 0.77 0.81 0.93 1.14 1.39 1.54 1.70 1.96 2.10 2.29 2.32 2.37 2.50 2.54 2.59 2.74 2.67 2.57 2.44 2.32 2.34 2.29 2.13 2.10 2.36 2.38 2.34 2.42 2.32 2.29 2.13 2.11 2.11
0.04 0.07 0.28 0.64 0.95 1.11 0.84 0.98 1.33 0.99 0.79 0.67 0.55 0.48 0.50 0.58 0.66 0.82 0.93 1.15 1.28 1.36 1.40 1.58 1.63 1.82 2.01 2.12 2.21 2.30 2.44 2.56 2.51 2.57 2.48 2.34 2.14 2.05 2.14 2.23 2.46 2.37 2.32 2.25 2.32 2.30 2.27 2.30 2.32
0.05 0.05 0.13 0.26 0.39 0.61 0.79 1.20 1.31 0.91 0.61 0.47 0.43 0.42 0.42 0.50 0.60 0.66 0.78 0.89 0.99 1.18 1.39 1.51 1.47 1.50 1.56 1.61 1.78 1.96 2.04 2.16 2.21 2.49 2.39 2.30 2.19 2.10 2.18 2.25 2.15 2.11 2.15 2.01 2.27 2.16 2.13 2.24 2.27
0.05 0.04 0.05 0.08 0.12 0.38 0.84 1.14 1.10 0.76 0.59 0.53 0.52 0.53 0.53 0.55 0.66 0.66 0.68 0.84 0.91 0.89 1.01 1.21 1.29 1.32 1.35 1.39 1.51 1.59 1.62 1.77 2.00 2.06 1.93 1.80 1.91 2.03 2.12 2.09 2.12 2.12 2.11 2.16 2.34 2.24 2.23 2.39 2.24
0.05 0.05 0.05 0.07 0.13 0.29 0.67 1.19 1.46 1.16 0.83 0.65 0.69 0.62 0.57 0.53 0.58 0.70 0.75 0.79 0.81 0.80 0.97 1.13 1.25 1.33 1.34 1.32 1.35 1.28 1.42 1.54 1.72 1.80 1.80 1.71 1.68 1.86 2.01 2.07 2.14 2.16 2.08 2.12 2.29 2.16 2.28 2.38 2.34
0.06 0.06 0.07 0.09 0.10 0.19 0.50 0.82 0.89 1.00 0.85 0.63 0.66 0.62 0.56 0.51 0.52 0.64 0.68 0.74 0.72 0.70 0.82 1.00 1.20 1.28 1.19 1.22 1.25 1.33 1.40 1.57 1.64 1.62 1.68 1.70 1.72 1.87 1.98 2.05 2.10 2.09 2.11 2.21 2.30 2.17 2.32 2.35 2.46
0.08 0.09 0.10 0.11 0.13 0.14 0.26 0.45 0.51 0.58 0.69 0.89 0.85 0.70 0.67 0.64 0.56 0.61 0.65 0.69 0.65 0.65 0.73 0.84 1.03 1.18 1.22 1.21 1.28 1.37 1.45 1.53 1.60 1.54 1.64 1.82 1.87 1.92 2.00 2.12 2.21 2.11 2.17 2.29 2.23 2.20 2.29 2.37 2.37